Change the Weather History Date:

Monday, November 5, 2012

  Actual Average Record
Temperature  
Mean Temperature 56 °F 61 °F  
Max Temperature 65 °F 74 °F 83 °F (1948)
Min Temperature 47 °F 48 °F 26 °F (1991)
Degree Days  
Heating Degree Days 9 6  
Month to date heating degree days 15 27  
Since 1 July heating degree days 90 102  
Cooling Degree Days 0 1  
Month to date cooling degree days 6 9  
Year to date cooling degree days 2713 2371  
Growing Degree Days 6 (Base 50)    
Moisture  
Dew Point 49 °F    
Average Humidity 72    
Maximum Humidity 100    
Minimum Humidity 43    
Precipitation  
Precipitation 0.07 in 0.14 in 2.71 in (1959)
Month to date precipitation 0.10 0.67  
Year to date precipitation 59.73 50.66  
Sea Level Pressure  
Sea Level Pressure 30.04 in    
Wind  
Wind Speed 2 mph (NE)    
Max Wind Speed 15 mph    
Max Gust Speed 22 mph    
Visibility 6 miles    
Events Fog , Rain , Thunderstorm    
T = Trace of Precipitation, MM = Missing Value Source: NWS Daily Summary

Daily Weather History Graph

Daily Weather History Graph

Search for Another Location

Airport or City:

Trip Planner

Search our weather history database for the weather conditions in past years. The results will help you decide how hot, cold, wet, or windy it might be!

Date:

Astronomy

Nov. 05, 2012 Rise Set
Actual Time 6:16 AM CST 5:04 PM CST
Civil Twilight 5:51 AM CST 5:29 PM CST
Nautical Twilight 5:22 AM CST 5:58 PM CST
Astronomical Twilight 4:53 AM CST 6:27 PM CST
Moon 10:41 PM CST (11/5) 11:34 AM CST (11/5)
Length of Visible Light 11h 38m
Length of Day
10h 48m
Waning Gibbous, 62% of the Moon is Illuminated
Nov 5
Waning Gibbous
Nov 6
Last Quarter
Nov 13
New
Nov 20
First Quarter
Nov 28
Full

Hourly Weather History & Observations

Time (CST) Temp. Dew Point Humidity Pressure Visibility Wind Dir Wind Speed Gust Speed Precip Events Conditions
12:02 AM 53.6 °F 51.8 °F 94% 30.10 in 5.0 mi Calm Calm - N/A   Clear
12:16 AM 53.6 °F 51.8 °F 94% 30.09 in 1.8 mi Calm Calm - N/A   Clear
12:32 AM 53.6 °F 51.8 °F 94% 30.10 in 0.5 mi Calm Calm - N/A Fog Fog
12:40 AM 53.6 °F 51.8 °F 94% 30.10 in 0.5 mi Calm Calm - N/A Fog Fog
12:53 AM 52.0 °F 51.1 °F 97% 30.09 in 0.5 mi Calm Calm - N/A Fog Fog
1:14 AM 51.8 °F 51.8 °F 100% 30.10 in 1.2 mi Calm Calm - N/A   Partly Cloudy
1:26 AM 51.8 °F 50.0 °F 94% 30.10 in 1.0 mi Calm Calm - N/A   Mist
1:34 AM 51.8 °F 50.0 °F 94% 30.09 in 1.8 mi Calm Calm - N/A   Clear
1:53 AM 51.1 °F 50.0 °F 96% 30.10 in 1.5 mi Calm Calm - N/A   Clear
2:07 AM 51.8 °F 50.0 °F 94% 30.10 in 3.0 mi Calm Calm - N/A   Clear
2:21 AM 51.8 °F 48.2 °F 88% 30.09 in 1.8 mi Calm Calm - N/A   Clear
2:31 AM 50.0 °F 48.2 °F 94% 30.09 in 3.0 mi Calm Calm - N/A   Clear
2:53 AM 48.9 °F 46.9 °F 93% 30.08 in 9.0 mi Calm Calm - N/A   Clear
3:06 AM 50.0 °F 48.2 °F 94% 30.09 in 1.5 mi Calm Calm - N/A   Clear
3:08 AM 50.0 °F 48.2 °F 94% 30.09 in 0.8 mi Calm Calm - N/A   Mist
3:31 AM 48.2 °F 48.2 °F 100% 30.09 in 1.2 mi Calm Calm - N/A   Partly Cloudy
3:45 AM 48.2 °F 46.4 °F 93% 30.09 in 2.5 mi Calm Calm - N/A   Clear
3:53 AM 48.0 °F 46.9 °F 96% 30.09 in 3.0 mi Calm Calm - N/A   Clear
4:53 AM 48.0 °F 46.9 °F 96% 30.09 in 5.0 mi Calm Calm - N/A   Mostly Cloudy
5:53 AM 48.9 °F 46.0 °F 90% 30.09 in 9.0 mi Calm Calm - N/A   Mostly Cloudy
6:53 AM 48.0 °F 46.0 °F 93% 30.11 in 4.0 mi Calm Calm - N/A   Partly Cloudy
7:53 AM 53.1 °F 46.9 °F 80% 30.11 in 10.0 mi Calm Calm - N/A   Partly Cloudy
8:53 AM 57.0 °F 46.0 °F 67% 30.10 in 10.0 mi SE 5.8 mph - N/A   Clear
11:53 AM 64.0 °F 41.0 °F 43% 30.06 in 10.0 mi NNE 9.2 mph - N/A   Overcast
12:48 PM 59.0 °F 44.6 °F 59% 30.05 in 10.0 mi NNE 8.1 mph - N/A Thunderstorm Overcast
12:53 PM 57.9 °F 44.1 °F 60% 30.04 in 10.0 mi NE 5.8 mph - N/A Thunderstorm Overcast
1:03 PM 59.0 °F 44.6 °F 59% 30.03 in 10.0 mi Variable 5.8 mph - N/A   Overcast
1:33 PM 57.2 °F 44.6 °F 63% 30.02 in 10.0 mi Variable 4.6 mph - 0.00 in Rain , Thunderstorm Light Rain
1:53 PM 55.9 °F 46.9 °F 72% 29.99 in 7.0 mi SE 8.1 mph - 0.03 in Rain , Thunderstorm Light Rain
2:04 PM 55.4 °F 48.2 °F 77% 29.98 in 10.0 mi ESE 8.1 mph - 0.00 in Rain Light Rain
2:53 PM 57.0 °F 48.9 °F 74% 29.98 in 10.0 mi Calm Calm - 0.00 in   Overcast
3:53 PM 57.9 °F 50.0 °F 75% 29.99 in 4.0 mi Calm Calm - 0.02 in Rain Light Rain
4:53 PM 57.0 °F 51.1 °F 81% 29.97 in 10.0 mi ESE 3.5 mph - 0.00 in   Overcast
5:53 PM 57.0 °F 48.0 °F 72% 29.97 in 10.0 mi Variable 3.5 mph - N/A   Mostly Cloudy
6:53 PM 57.0 °F 50.0 °F 77% 29.97 in 10.0 mi Calm Calm - N/A   Mostly Cloudy
7:08 PM 55.4 °F 51.8 °F 88% 29.97 in 7.0 mi Calm Calm - 0.02 in Rain Light Rain
7:53 PM 55.9 °F 52.0 °F 87% 29.97 in 10.0 mi Calm Calm - 0.02 in   Overcast
8:04 PM 55.4 °F 51.8 °F 88% 29.96 in 10.0 mi Calm Calm - N/A   Mostly Cloudy
8:53 PM 55.0 °F 53.1 °F 93% 29.98 in 9.0 mi Calm Calm - N/A   Overcast
9:04 PM 55.4 °F 53.6 °F 94% 29.98 in 9.0 mi Calm Calm - N/A   Overcast
9:46 PM 53.6 °F 50.0 °F 88% 30.00 in 10.0 mi NNW 8.1 mph - N/A   Overcast
9:53 PM 53.1 °F 50.0 °F 89% 30.00 in 10.0 mi North 10.4 mph - N/A   Overcast
10:06 PM 53.6 °F 50.0 °F 88% 29.99 in 10.0 mi NNW 5.8 mph - N/A   Scattered Clouds
10:53 PM 50.0 °F 48.0 °F 93% 29.99 in 9.0 mi NNW 3.5 mph - N/A   Clear
11:08 PM 51.8 °F 48.2 °F 88% 29.98 in 9.0 mi Calm Calm - N/A   Scattered Clouds
11:22 PM 51.8 °F 48.2 °F 88% 29.98 in 7.0 mi Calm Calm - N/A   Mostly Cloudy
11:53 PM 52.0 °F 48.9 °F 89% 29.97 in 8.0 mi Calm Calm - N/A   Overcast